Home > Weather > Wittmund > Past weeks

Flag for Germany Weather for the Past 2 Weeks in Wittmund, Lower Saxony, Germany

Now
46 °F

Drizzle. Fog.


Feels Like: 41 °F
Forecast: 46 / 48 °F
Wind: 10 mph from Southwest

Location: Wittmundhaven

Current Time: Feb 5, 2016 at 11:29:43 PM

Latest Report: Feb 5, 2016 at 10:20 PM


Visibility: 3 mi

Pressure: 29.98 "Hg

Humidity: 93%

Dew point: 45 °F

Location of WittmundLocation

Historic Weather in Wittmund — Graph

°F

Wittmund Temperature Yesterday

Maximum temperature yesterday: 41 °F (at 1:20 PM)
Minimum temperature yesterday: 34 °F (at 10:20 PM)
Average temperature yesterday: 38 °F

High & Low Weather Summary for the Past Weeks

 TemperatureHumidityPressure
High54 °F (Jan 25, 2:20 PM)100% (Jan 21, 9:20 PM)30.45 "Hg (Jan 21, 9:20 PM)
Low19 °F (Jan 22, 7:20 AM)62% (Feb 2, 1:20 PM)29.56 "Hg (Jan 30, 8:20 AM)
Average43 °F87%29.98 "Hg
* Reported Jan 21 9:20 PM — Feb 5 9:20 PM, Wittmund, Weather by CustomWeather, © 2016

Note: Actual official high and low records may vary slightly from our data, if they occured in-between our weather recording intervals... More about our weather records

Advertising

Wittmund Weather History for the Previous 24 Hours

 ConditionsComfort  
Time TempWeatherWind HumidityBarometerVisibility
9:20 PM
Fri, Feb 5
46 °FPassing clouds.13 mph93%30.01 "Hg5 mi
8:20 PM46 °FPassing clouds.14 mph93%30.01 "Hg6 mi
7:20 PM46 °FPassing clouds.12 mph93%30.01 "Hg4 mi
6:51 PM46 °FPassing clouds.10 mph93%30.01 "Hg6 mi
6:20 PM46 °FCool.10 mph93%30.04 "Hg4 mi
5:20 PM46 °FCool.8 mph93%30.04 "Hg4 mi
4:20 PM46 °FCool.8 mph93%30.04 "Hg4 mi
3:20 PM46 °FCool.14 mph93%30.04 "Hg3 mi
2:20 PM46 °FCool.14 mph93%30.04 "Hg2 mi
1:20 PM45 °FQuite cool.14 mph100%30.07 "Hg1 mi
12:20 PM43 °FDrizzle. Fog.14 mph93%30.07 "Hg2 mi
11:20 AM41 °FDrizzle. Fog.14 mph93%30.09 "Hg2 mi
10:20 AM39 °FDrizzle. Fog.13 mph100%30.09 "Hg2 mi
9:20 AM39 °FDrizzle. Partly sunny.10 mph93%30.12 "Hg4 mi
8:20 AM39 °FLight rain. Partly sunny.10 mph93%30.12 "Hg4 mi
7:20 AM37 °FLight rain. Passing clouds.10 mph100%30.15 "Hg4 mi
6:55 AM37 °FLight rain. Partly cloudy.10 mph100%30.15 "Hg4 mi
6:20 AM37 °FLight rain. Passing clouds.8 mph93%30.15 "Hg5 mi
5:20 AM36 °FPassing clouds.6 mph100%30.18 "HgN/A
4:20 AM36 °FPassing clouds.7 mph93%30.18 "HgN/A
3:20 AM36 °FPassing clouds.3 mph93%30.18 "HgN/A
2:20 AM34 °FPassing clouds.3 mph93%30.21 "HgN/A
1:20 AM34 °FPassing clouds.5 mph100%30.21 "HgN/A
12:20 AM34 °FPassing clouds.5 mph93%30.21 "HgN/A
11:20 PM
Thu, Feb 4
34 °FPassing clouds.5 mph100%30.18 "HgN/A
Weather by CustomWeather, © 2016

See weather overviewHow to use our weather pages